OneWeb SL0042

operational
NORAD ID: 45441 Int'l Des: 2020-020 Owner: ONEWEB Country: UK Constellation: oneweb
LEOCIRCULARPOLARONEWEB_TYPE

About OneWeb SL0042

Description loading...

Live Position

Loading 3D Globe...

Upcoming Passes

Altitude History

Altitude vs Time

uPlot chart will show altitude changes over time

Two-Line Element Set

1 45441U 20020T 25351.23130113 -.00000248 00000-0 -73468-3 0 9999
2 45441 87.8863 57.2833 0001794 106.3515 253.7810 13.11416259278815
Epoch: Dec 17, 2025 • Age: 9 hours

Current Status

Altitude 1241.9 km
Velocity 7.23 km/s
Sub-Earth Point -60.20°S, 57.01°W
Launch Date Mar 21, 2020
Age 5.7 years
Type internet

Technical Details

Classification Payload
Mass 148.00 kg
Dry Mass 140.00 kg
Total Mass 148.00 kg
Length 1.30 m
Diameter 1.00 m
Span 5.00 m
Shape Trapezoid+2 pan
Manufacturer ONEWUS
Bus Type ARROW
Phase Status In Orbit
Owner/State ONEWEB/UK

Large Constellations

Loading constellations...